TimeMST,TemperatureF,Dew PointF,Humidity,Sea Level PressureIn,VisibilityMPH,Wind Direction,Wind SpeedMPH,Gust SpeedMPH,PrecipitationIn,Events,Conditions,WindDirDegrees,DateUTC
12:53 AM,-0.9,-9.9,66,30.31,10.0,Calm,Calm,-,N/A,,Clear,0,2013-01-15 07:53:00
1:53 AM,-2.0,-11.0,66,30.30,10.0,NNW,5.8,-,N/A,,Clear,340,2013-01-15 08:53:00
2:53 AM,-2.9,-11.0,68,30.30,10.0,North,5.8,-,N/A,,Clear,360,2013-01-15 09:53:00
3:53 AM,-2.2,-11.2,66,30.07,10.0,NNW,4.6,-,N/A,,Clear,340,2013-01-15 10:53:00
4:53 AM,-6.0,-13.0,72,30.31,10.0,North,3.5,-,N/A,,Clear,360,2013-01-15 11:53:00
5:53 AM,-4.0,-11.0,72,30.33,10.0,Calm,Calm,-,N/A,,Clear,0,2013-01-15 12:53:00
6:53 AM,1.0,-6.0,72,30.31,10.0,NW,8.1,-,N/A,,Clear,310,2013-01-15 13:53:00
7:53 AM,3.9,-4.0,70,30.31,10.0,Calm,Calm,-,N/A,,Overcast,0,2013-01-15 14:53:00
8:53 AM,10.0,-0.9,61,30.31,10.0,WNW,5.8,-,N/A,,Overcast,300,2013-01-15 15:53:00
9:53 AM,17.1,6.1,62,30.27,10.0,WNW,15.0,-,N/A,,Overcast,290,2013-01-15 16:53:00
10:53 AM,21.9,9.0,58,30.26,10.0,WNW,16.1,21.9,N/A,,Overcast,290,2013-01-15 17:53:00
11:53 AM,24.1,10.9,57,30.24,10.0,WNW,21.9,27.6,N/A,,Overcast,290,2013-01-15 18:53:00
12:53 PM,27.0,14.0,58,30.20,10.0,West,20.7,26.5,N/A,,Overcast,280,2013-01-15 19:53:00
1:53 PM,28.0,16.0,61,30.20,10.0,WNW,15.0,-,N/A,,Overcast,290,2013-01-15 20:53:00
2:53 PM,30.0,16.0,56,30.19,10.0,West,21.9,31.1,N/A,,Overcast,280,2013-01-15 21:53:00
3:53 PM,28.9,16.0,58,30.20,10.0,West,20.7,29.9,N/A,,Mostly Cloudy,280,2013-01-15 22:53:00
4:53 PM,28.0,16.0,61,30.22,10.0,WNW,21.9,26.5,N/A,,Overcast,290,2013-01-15 23:53:00
5:53 PM,28.0,16.0,61,30.22,10.0,WNW,15.0,-,N/A,,Overcast,290,2013-01-16 00:53:00
6:53 PM,28.0,17.1,63,30.21,10.0,West,19.6,27.6,N/A,,Overcast,280,2013-01-16 01:53:00
7:53 PM,28.0,17.1,63,30.21,10.0,WNW,20.7,28.8,N/A,,Overcast,290,2013-01-16 02:53:00
8:53 PM,28.9,17.1,61,30.19,10.0,WNW,19.6,29.9,N/A,,Overcast,290,2013-01-16 03:53:00
9:53 PM,30.0,18.0,61,30.16,10.0,WNW,15.0,21.9,N/A,,Overcast,290,2013-01-16 04:53:00
10:53 PM,30.0,17.1,59,30.15,10.0,West,20.7,26.5,N/A,,Overcast,280,2013-01-16 05:53:00
11:53 PM,28.0,17.1,63,30.14,10.0,West,21.9,31.1,N/A,,Partly Cloudy,280,2013-01-16 06:53:00